Other Surface Observations
Issued by NWS Tucson, AZ

Home | Current Version | Previous Version | Text Only | Print | Product List | Glossary On
Versions: 1 2 3 4 5 6 7 8 9 10 11 12 13 14 15 16 17 18 19 20 21 22 23 24 25 26 27 28 29 30 31 32 33 34 35 36 37 38 39 40 41 42 43 44 45 46 47 48 49 50
000
SXUS55 KTWC 272015
OSOTWC

WEATHER ROUNDUP FOR SOUTHEAST ARIZONA
NATIONAL WEATHER SERVICE TUCSON AZ
115 PM MST TUE JAN 27 2015

AZZ504>506-514-272115-
LOCATION       SKY/WX    TMP DP  RH WIND       PRES   REMARKS
TUCSON         MOSUNNY   71  47  42 NW7       30.22F
DAVIS-MONTHAN  SUNNY     70  43  37 NW5       30.19F
CHILDRENS PARK N/A       65  47  53 W1                PIMA CO DEQ
ALVERNON/22ND  N/A      N/A N/A N/A N/A               PIMA CO DEQ
CHERRY/GLENN   N/A      N/A N/A N/A N/A               PIMA CO DEQ
TANGERINE      N/A       67 N/A N/A W4                PIMA CO DEQ
CONTL RANCH    N/A       70  46  42 S3                PIMA CO DEQ
GRANT/1ST      N/A       65  48  54 NW1               PIMA CO DEQ
CRAYCROFT/22ND N/A      N/A N/A N/A N/A               PIMA CO DEQ
GOLFLINKS/KOLB N/A       68  43  40 NW2               PIMA CO DEQ
AJO/12TH       N/A       66  51  58 W1                PIMA CO DEQ
SAGUARO EAST   N/A      N/A N/A N/A N/A               PIMA CO DEQ
FAIRGROUNDS    N/A       71 N/A N/A E3                PIMA CO DEQ
SAGUARO        N/A       72  48  43 W2                *SABINO CYN
SAN CARLOS     N/A       62  39  42 NW3               *SAN CARLOS
GREEN VALLEY   N/A       67  49  52 E1                PIMA CO DEQ
HORSE CAMP CYN N/A       62  37  39 E6G11             *ARAVAIPA CYN
RINCON MTNS    N/A       49  40  72 SW3               *NR MANNING CAMP
$$

AZZ509>511-272115-
LOCATION       SKY/WX    TMP DP  RH WIND       PRES   REMARKS
SAFFORD        SUNNY     67  32  27 S6        30.23F
STRAY HORSE    N/A       52  37  56 S6G11             *
TRAIL CABIN    N/A       57  35  43 NE5G10            *N OF GRANVILLE
BLACK HILLS    N/A       67  36  32 N3                *N OF FT THOMAS
DRY LAKE       N/A       54  35  49 S6G11             *NATANES MTNS
NOON CREEK     N/A       65  34  31 NE3               *PINALENO MTNS
COLUMBINE      N/A       43  31  62 SW6G12            *PINALENO MTNS
GUTHRIE        N/A       57  33  40 SE3               *SW OF GUTHRIE
$$

AZZ502-503-513-272115-
LOCATION       SKY/WX    TMP DP  RH WIND       PRES   REMARKS
NOGALES        SUNNY     69  46  43 W8        30.23F
SELLS          N/A       66  58  76 NW6G10            *
SASABE         N/A       69  54  59 SE5               *ALTAR VLY
HOPKINS        N/A       59  46  63 W4                *SANTA RITA MTNS
CARR CYN       N/A       63  44  50 SE3               *W OF HEREFORD
$$

AZZ507-508-512-272115-
LOCATION       SKY/WX    TMP DP  RH WIND       PRES   REMARKS
SIERRA VISTA   PTSUNNY   66  41  39 E7        30.26F
DOUGLAS        SUNNY     68  41  37 SW5       30.24F
EMPIRE MTNS    N/A       65  42  43 CALM              *LAS CIENEGAS NCA
MULESHOE RANCH N/A       67  35  31 W7G12             *PRESERVE
HEADQUARTERS   N/A       64  40  42 W3                *CHIRICAHUA MTNS
$$

.............................NOTES.............................
THIS IS AN AUTOMATED COLLECTIVE WITH MINIMAL QUALITY CONTROL.
PIMA CO DEQ SITES HAVE NONSTANDARD WIND SENSOR HEIGHTS.
PIMA CO DEQ SITES DO NOT REPORT WIND GUSTS.
* INDICATES WIND SENSORS LOCATED AT 20 FEET INSTEAD OF 33 FEET.
..............................KEY..............................
SKY/WX - SKY CONDITION/WEATHER
TMP    - TEMPERATURE IN FAHRENHEIT
DP     - DEWPOINT IN FAHRENHEIT
RH     - RELATIVE HUMIDITY IN PERCENT
WIND   - DIRECTION AND SPEED IN MILES PER HOUR (MPH)
VRB    - VARIABLE WIND DIRECTION
PRES   - MEAN SEA LEVEL PRESSURE IN INCHES OF MERCURY
         F - FALLING PRESSURE   R - RISING PRESSURE
         S - STEADY PRESSURE
VSB    - VISIBILITY IN MILES
HX     - HEAT INDEX IN FAHRENHEIT
WCI    - WIND CHILL INDEX IN FAHRENHEIT
N/A    - NOT AVAILABLE
AFB    - AIR FORCE BASE
         DAVIS-MONTHAN IS DAVIS-MONTHAN AIR FORCE BASE
CYN    - CANYON
MTNS   - MOUNTAINS
NCA    - NATIONAL CONSERVATION AREA
NR     - NEAR
VLY    - VALLEY
CONTL  - CONTINENTAL
PIMA CO DEQ - PIMA COUNTY DEPT OF ENVIRONMENTAL QUALITY



USA.gov is the U.S. government's official web portal to all federal, state and local government web resources and services.